GW1238 Weather Reports


time (UTC)temp
F
wind
direction
speed
knots
gust
knots
rain 1hr
in
rain 24hr
in
rain mn
in
humidity
%
barometer
mb
20260905095840 76 332 1.7 1.7 0.00 0.00 0.00 95 1017.0
20260905095340 76 334 0.9 1.7 0.00 0.00 0.00 96 1017.0
20260905094835 76 337 0.9 1.7 0.00 0.00 0.00 96 1017.2
20260905094331 76 334 0.9 1.7 0.00 0.00 0.00 96 1017.1
20260905093829 76 338 1.7 1.7 0.00 0.00 0.00 96 1016.6
20260905093326 76 341 1.7 1.7 0.00 0.00 0.00 96 1016.8
20260905092821 76 331 1.7 1.7 0.00 0.00 0.00 96 1016.9
20260905092321 76 339 0.9 2.6 0.00 0.00 0.00 96 1016.7
20260905091816 77 343 0.9 1.7 0.00 0.00 0.00 96 1016.7
20260905091316 77 3 0.9 1.7 0.00 0.00 0.00 96 1016.5
20260905090815 77 359 0.9 1.7 0.00 0.00 0.00 96 1016.8
20260905090311 76 341 0.9 1.7 0.00 0.00 0.00 96 1016.7
20260905085810 77 332 0.9 1.7 0.00 0.00 0.00 96 1016.7
20260905085310 77 341 0.9 1.7 0.00 0.00 0.00 96 1016.7
20260905084806 77 340 1.7 1.7 0.00 0.00 0.00 96 1016.8
20260905084305 77 336 1.7 1.7 0.00 0.00 0.00 95 1016.6
20260905083800 77 330 0.9 0.9 0.00 0.00 0.00 95 1016.7
20260905083256 77 335 1.7 1.7 0.00 0.00 0.00 95 1016.7
20260905082751 77 335 0.9 1.7 0.00 0.00 0.00 95 1016.8
20260905082248 77 344 0.9 1.7 0.00 0.00 0.00 94 1016.8
20260905081742 78 332 0.9 0.9 0.00 0.00 0.00 94 1016.7
20260905081237 77 341 0.9 1.7 0.00 0.00 0.00 94 1016.6
20260905080736 77 327 0.9 1.7 0.00 0.00 0.00 94 1016.5
20260905080236 77 342 1.7 1.7 0.00 0.00 0.00 94 1016.8
20260905075735 78 357 0.9 1.7 0.00 0.00 0.00 94 1016.6
20260905075234 77 338 1.7 1.7 0.00 0.00 0.00 94 1016.5
20260905074733 78 323 0.9 1.7 0.00 0.00 0.00 93 1016.5
20260905074230 78 339 0.9 1.7 0.00 0.00 0.00 94 1016.7
20260905073725 78 359 0.9 1.7 0.00 0.00 0.00 94 1016.6
20260905073220 78 349 1.7 1.7 0.00 0.00 0.00 93 1016.6
20260905072719 78 359 0.9 1.7 0.00 0.00 0.00 93 1016.6
20260905072215 77 338 1.7 1.7 0.00 0.00 0.00 93 1016.6
20260905071712 78 334 1.7 1.7 0.00 0.00 0.00 92 1016.4
20260905071208 78 336 0.9 1.7 0.00 0.00 0.00 92 1016.6
20260905070702 78 346 1.7 1.7 0.00 0.00 0.00 92 1016.4
20260905070158 78 341 0.9 1.7 0.00 0.00 0.00 92 1016.3
20260905065656 78 334 1.7 1.7 0.00 0.00 0.00 91 1016.5
20260905065151 78 346 0.9 1.7 0.00 0.00 0.00 91 1016.6
20260905064646 79 343 0.9 1.7 0.00 0.00 0.00 91 1016.8
20260905064142 79 333 0.9 1.7 0.00 0.00 0.00 90 1016.7
20260905063640 78 338 1.7 1.7 0.00 0.00 0.00 91 1016.8
20260905063137 78 341 0.9 1.7 0.00 0.00 0.00 91 1016.9
20260905062632 78 323 0.9 2.6 0.00 0.00 0.00 91 1016.9
20260905062131 79 1 0.9 1.7 0.00 0.00 0.00 91 1016.6
20260905061626 78 330 1.7 1.7 0.00 0.00 0.00 91 1016.7
20260905061126 79 337 0.9 1.7 0.00 0.00 0.00 91 1016.8
20260905060622 79 347 1.7 1.7 0.00 0.00 0.00 90 1016.7
20260905060118 79 341 1.7 1.7 0.00 0.00 0.00 90 1016.7
20260905055616 79 328 1.7 1.7 0.00 0.00 0.00 90 1016.9
20260905055111 79 337 1.7 1.7 0.00 0.00 0.00 90 1016.9
20260905054607 79 358 1.7 1.7 0.00 0.00 0.00 90 1016.8
20260905054102 79 336 0.9 1.7 0.00 0.00 0.00 90 1016.9
20260905053601 79 338 0.9 1.7 0.00 0.00 0.00 90 1016.9
20260905053057 79 343 1.7 1.7 0.00 0.00 0.00 89 1017.1
20260905052556 79 356 0.9 1.7 0.00 0.00 0.00 90 1016.9
20260905052051 79 342 0.9 1.7 0.00 0.00 0.00 90 1017.0
20260905051547 80 338 0.9 2.6 0.00 0.00 0.00 90 1017.0
20260905051044 80 337 0.9 2.6 0.00 0.00 0.00 91 1017.1
20260905050539 79 331 0.9 1.7 0.00 0.00 0.00 91 1017.0
20260905050031 80 343 0.9 1.7 0.00 0.00 0.00 91 1017.1
20260905045531 79 340 1.7 1.7 0.00 0.00 0.00 91 1017.0
20260905045026 80 342 1.7 1.7 0.00 0.00 0.00 91 1016.7
20260905044526 80 331 1.7 1.7 0.00 0.00 0.00 91 1016.9
20260905044020 80 338 0.9 2.6 0.00 0.00 0.00 90 1016.8
20260905043520 80 356 0.0 0.9 0.00 0.00 0.00 91 1017.0
20260905043015 80 333 1.7 1.7 0.00 0.00 0.00 91 1017.0
20260905042514 80 339 1.7 1.7 0.00 0.00 0.00 91 1017.1
20260905042009 80 334 1.7 1.7 0.00 0.00 0.00 90 1017.1
20260905041505 80 353 0.9 0.9 0.00 0.00 0.00 91 1017.0
20260905041000 80 332 0.9 1.7 0.00 0.00 0.00 91 1017.1
20260905040459 80 343 0.9 1.7 0.00 0.00 0.00 91 1017.3
20260905035958 81 337 1.7 1.7 0.00 0.00 0.00 91 1017.3
20260905035454 80 336 1.7 1.7 0.00 0.00 0.00 91 1017.5
20260905034951 81 338 1.7 1.7 0.00 0.00 0.00 90 1017.5
20260905034446 81 331 0.9 1.7 0.00 0.00 0.00 89 1017.6
20260905033945 81 335 0.9 1.7 0.00 0.00 0.00 89 1017.5
20260905033440 81 327 0.9 1.7 0.00 0.00 0.00 90 1017.4
20260905032940 81 328 0.9 0.9 0.00 0.00 0.00 89 1017.6
20260905032435 81 344 0.9 1.7 0.00 0.00 0.00 89 1017.8
20260905031930 81 338 0.9 1.7 0.00 0.00 0.00 89 1017.7
20260905031426 82 12 0.9 0.9 0.00 0.00 0.00 89 1017.5
20260905030921 82 355 0.0 0.9 0.00 0.00 0.00 89 1017.7
20260905030417 81 328 0.9 1.7 0.00 0.00 0.00 89 1017.8
20260905025915 82 341 0.9 1.7 0.00 0.00 0.00 90 1017.8
20260905025411 82 340 0.9 1.7 0.00 0.00 0.00 90 1018.0
20260905024907 82 353 0.9 1.7 0.00 0.00 0.00 90 1017.8
20260905024402 82 339 1.7 1.7 0.00 0.00 0.00 89 1018.0
20260905023857 82 344 1.7 2.6 0.00 0.00 0.00 89 1018.1
20260905023347 82 340 1.7 2.6 0.00 0.00 0.00 88 1017.9
20260905022846 82 334 1.7 2.6 0.00 0.00 0.00 88 1018.0
20260905022342 82 357 1.7 2.6 0.00 0.00 0.00 87 1018.0
20260905021841 82 346 1.7 2.6 0.00 0.00 0.00 88 1018.0
20260905021337 82 331 1.7 2.6 0.00 0.00 0.00 87 1017.8
20260905020832 82 354 1.7 1.7 0.00 0.00 0.00 86 1018.0
20260905020327 82 341 1.7 1.7 0.00 0.00 0.00 86 1017.8
20260905015826 82 340 0.9 1.7 0.00 0.00 0.00 86 1017.8
20260905015325 82 341 0.9 2.6 0.00 0.00 0.00 84 1018.0
20260905014824 82 338 0.9 1.7 0.00 0.00 0.00 85 1018.0
20260905014320 83 350 0.9 0.9 0.00 0.00 0.00 84 1017.7
20260905013815 83 359 0.0 0.0 0.00 0.00 0.00 84 1018.0
20260905013312 83 328 0.9 0.9 0.00 0.00 0.00 83 1018.0
20260905012806 83 330 1.7 1.7 0.00 0.00 0.00 84 1017.9
20260905012305 83 346 0.9 1.7 0.00 0.00 0.00 84 1017.8
20260905011758 83 1 0.9 1.7 0.00 0.00 0.00 83 1017.8
20260905011254 83 350 1.7 1.7 0.00 0.00 0.00 83 1017.6
20260905010749 83 340 1.7 2.6 0.00 0.00 0.00 83 1017.7
20260905010244 83 329 1.7 1.7 0.00 0.00 0.00 82 1017.3
20260905005741 83 347 0.9 0.9 0.00 0.00 0.00 82 1017.5
20260905005236 83 338 0.9 1.7 0.00 0.00 0.00 82 1017.6
20260905004736 83 338 0.9 1.7 0.00 0.00 0.00 81 1017.5
20260905004231 84 337 1.7 1.7 0.00 0.00 0.00 81 1017.4
20260905003731 84 336 0.9 1.7 0.00 0.00 0.00 82 1017.4
20260905003227 84 355 0.9 1.7 0.00 0.00 0.00 81 1017.4
20260905002722 84 342 1.7 2.6 0.00 0.00 0.00 81 1017.5
20260905002222 84 326 1.7 1.7 0.00 0.00 0.00 81 1017.3
20260905001717 85 339 1.7 1.7 0.00 0.00 0.00 80 1017.3
20260905001216 85 335 0.9 1.7 0.00 0.00 0.00 80 1017.3
20260905000712 85 326 0.9 2.6 0.00 0.00 0.00 81 1017.2
20260905000207 86 331 0.9 1.7 0.00 0.00 0.00 79 1017.4
20260904235707 86 331 0.9 1.7 0.00 0.00 0.00 78 1017.1
20260904235203 87 329 0.9 0.9 0.00 0.00 0.00 77 1017.3
20260904234657 87 342 0.9 1.7 0.00 0.00 0.00 77 1017.1
20260904234153 87 10 0.9 0.9 0.00 0.00 0.00 77 1017.2
20260904233648 87 344 0.9 1.7 0.00 0.00 0.00 75 1016.8
20260904233144 88 337 0.9 1.7 0.00 0.00 0.00 75 1016.9
20260904232641 88 340 0.9 1.7 0.00 0.00 0.00 74 1016.7
20260904232136 88 332 1.7 1.7 0.00 0.00 0.00 74 1016.7
20260904231632 88 347 0.9 1.7 0.00 0.00 0.00 72 1016.7
20260904231127 89 342 0.9 1.7 0.00 0.00 0.00 71 1016.9
20260904230626 89 325 0.9 1.7 0.00 0.00 0.00 70 1016.7
20260904230122 90 336 0.9 2.6 0.00 0.00 0.00 69 1016.9
20260904225619 90 338 0.9 0.9 0.00 0.00 0.00 68 1016.5
20260904225114 91 357 0.9 1.7 0.00 0.00 0.00 67 1016.7
20260904224609 91 3 0.9 0.9 0.00 0.00 0.00 65 1016.8
20260904224104 92 317 1.7 1.7 0.00 0.00 0.00 65 1016.6
20260904223603 93 31 0.9 1.7 0.00 0.00 0.00 61 1016.8
20260904223058 94 357 0.9 2.6 0.00 0.00 0.00 60 1016.8
20260904222554 94 337 1.7 1.7 0.00 0.00 0.00 59 1016.5
20260904222049 95 24 1.7 2.6 0.00 0.00 0.00 57 1016.6
20260904221544 94 327 2.6 2.6 0.00 0.00 0.00 58 1016.7
20260904221039 94 341 1.7 2.6 0.00 0.00 0.00 58 1016.5
20260904220538 95 316 0.9 2.6 0.00 0.00 0.00 58 1016.5
20260904220034 95 129 0.9 2.6 0.00 0.00 0.00 58 1016.4
20260904215533 94 308 1.7 3.5 0.00 0.00 0.00 58 1016.4
20260904215030 94 334 3.5 5.2 0.00 0.00 0.00 58 1016.4
20260904214525 94 36 0.9 2.6 0.00 0.00 0.00 59 1016.5
20260904214020 94 293 2.6 2.6 0.00 0.00 0.00 59 1016.7
20260904213518 94 322 2.6 3.5 0.00 0.00 0.00 58 1016.4
20260904213010 96 300 1.7 3.5 0.00 0.00 0.00 57 1016.6
20260904212509 96 73 0.9 5.2 0.00 0.00 0.00 56 1016.8
20260904212004 96 103 1.7 2.6 0.00 0.00 0.00 56 1016.6
20260904211503 98 123 0.0 1.7 0.00 0.00 0.00 50 1016.7
20260904210959 98 96 0.0 1.7 0.00 0.00 0.00 51 1016.8
20260904210458 96 108 1.7 2.6 0.00 0.00 0.00 56 1016.8
20260904205954 95 105 2.6 2.6 0.00 0.00 0.00 57 1016.9
20260904205449 95 103 2.6 3.5 0.00 0.00 0.00 56 1016.8
20260904204947 95 97 3.5 5.2 0.00 0.00 0.00 59 1016.9
20260904204442 96 105 3.5 5.2 0.00 0.00 0.00 54 1017.1
20260904203938 98 325 1.7 3.5 0.00 0.00 0.00 50 1017.0
20260904203434 96 139 0.0 2.6 0.00 0.00 0.00 52 1017.3
20260904202930 97 135 1.7 2.6 0.00 0.00 0.00 57 1017.2
20260904202426 97 150 0.9 1.7 0.00 0.00 0.00 52 1017.2
20260904201922 103 177 0.0 0.9 0.00 0.00 0.00 47 1017.3
20260904201417 103 175 0.9 1.7 0.00 0.00 0.00 45 1017.3
20260904200912 103 184 0.0 1.7 0.00 0.00 0.00 45 1017.3
20260904200410 104 190 0.9 1.7 0.00 0.00 0.00 44 1017.5
20260904195906 104 183 0.9 0.9 0.00 0.00 0.00 47 1017.5
20260904195404 103 203 0.9 1.7 0.00 0.00 0.00 43 1017.7
20260904194858 105 183 0.9 1.7 0.00 0.00 0.00 45 1017.7
20260904194358 104 154 0.0 0.0 0.00 0.00 0.00 45 1017.7
20260904193853 105 156 0.0 0.0 0.00 0.00 0.00 44 1017.8
20260904193348 103 168 0.0 0.0 0.00 0.00 0.00 47 1017.9
20260904192844 99 181 0.9 1.7 0.00 0.00 0.00 52 1018.0
20260904192339 97 152 0.0 0.9 0.00 0.00 0.00 53 1018.0
20260904191835 96 152 0.9 1.7 0.00 0.00 0.00 54 1018.4
20260904191332 95 140 1.7 2.6 0.00 0.00 0.00 52 1018.5
20260904190828 96 135 1.7 2.6 0.00 0.00 0.00 55 1018.5
20260904190324 100 172 0.9 0.9 0.00 0.00 0.00 51 1018.5
20260904185819 96 139 0.0 0.9 0.00 0.00 0.00 54 1018.7
20260904185315 94 127 0.9 0.9 0.00 0.00 0.00 59 1018.5
20260904184814 94 117 0.9 1.7 0.00 0.00 0.00 58 1018.9
20260904184309 93 117 1.7 2.6 0.00 0.00 0.00 58 1018.9
20260904183805 93 118 0.9 2.6 0.00 0.00 0.00 59 1019.1
20260904183306 93 102 1.7 3.5 0.00 0.00 0.00 60 1019.1
20260904182801 93 91 2.6 2.6 0.00 0.00 0.00 59 1019.1
20260904182256 93 110 3.5 3.5 0.00 0.00 0.00 61 1019.3
20260904181751 93 118 1.7 2.6 0.00 0.00 0.00 59 1019.2
20260904181251 93 97 1.7 2.6 0.00 0.00 0.00 59 1019.2
20260904180747 94 125 0.9 0.9 0.00 0.00 0.00 58 1019.2
20260904180242 94 126 0.0 1.7 0.00 0.00 0.00 59 1019.4
20260904175741 96 133 0.0 0.0 0.00 0.00 0.00 58 1019.3
20260904175239 93 130 0.0 0.9 0.00 0.00 0.00 63 1019.5
20260904174734 92 125 0.9 0.9 0.00 0.00 0.00 63 1019.3
20260904174230 92 115 0.9 1.7 0.00 0.00 0.00 63 1019.7
20260904173726 92 128 0.9 0.9 0.00 0.00 0.00 62 1019.9
20260904173226 92 129 0.9 0.9 0.00 0.00 0.00 64 1019.7
20260904172723 92 129 0.9 0.9 0.00 0.00 0.00 66 1019.7
20260904172221 91 128 0.9 1.7 0.00 0.00 0.00 64 1019.9
20260904171717 91 119 1.7 1.7 0.00 0.00 0.00 68 1019.9
20260904171212 90 116 1.7 1.7 0.00 0.00 0.00 65 1019.9
20260904170708 90 112 1.7 2.6 0.00 0.00 0.00 68 1020.3
20260904170204 90 113 1.7 2.6 0.00 0.00 0.00 69 1020.0
20260904165703 90 117 1.7 1.7 0.00 0.00 0.00 69 1020.3
20260904165202 90 122 1.7 2.6 0.00 0.00 0.00 71 1020.1
20260904164657 90 127 0.9 1.7 0.00 0.00 0.00 69 1020.3
20260904164152 91 124 1.7 1.7 0.00 0.00 0.00 71 1020.2
20260904163648 93 180 0.9 1.7 0.00 0.00 0.00 67 1020.4
20260904163143 92 189 1.7 1.7 0.00 0.00 0.00 69 1020.2
20260904162642 91 185 1.7 1.7 0.00 0.00 0.00 70 1020.4
20260904162137 90 174 1.7 2.6 0.00 0.00 0.00 72 1020.5
20260904161633 89 175 1.7 1.7 0.00 0.00 0.00 72 1020.7
20260904161127 88 162 1.7 1.7 0.00 0.00 0.00 72 1020.6
20260904160624 88 161 1.7 2.6 0.00 0.00 0.00 73 1020.6
20260904160119 88 150 0.9 1.7 0.00 0.00 0.00 72 1020.5
20260904155614 88 150 1.7 1.7 0.00 0.00 0.00 75 1020.6
20260904155108 87 137 1.7 2.6 0.00 0.00 0.00 74 1020.6
20260904154601 88 140 1.7 2.6 0.00 0.00 0.00 74 1020.6
20260904154056 88 153 1.7 2.6 0.00 0.00 0.00 72 1020.6
20260904153555 88 161 1.7 1.7 0.00 0.00 0.00 71 1020.7
20260904153052 89 156 1.7 1.7 0.00 0.00 0.00 72 1020.6
20260904152548 91 164 0.9 1.7 0.00 0.00 0.00 69 1020.8
20260904152043 91 183 0.9 1.7 0.00 0.00 0.00 67 1020.7
20260904151538 91 190 0.9 0.9 0.00 0.00 0.00 68 1020.7
20260904151037 90 201 0.9 0.9 0.00 0.00 0.00 68 1020.8
20260904150532 90 185 1.7 1.7 0.00 0.00 0.00 68 1020.6
20260904150027 91 187 0.9 1.7 0.00 0.00 0.00 69 1020.8
20260904145526 91 190 0.9 1.7 0.00 0.00 0.00 68 1020.7
20260904145022 91 180 0.9 0.9 0.00 0.00 0.00 69 1020.9
20260904144518 89 171 0.9 0.9 0.00 0.00 0.00 71 1020.7
20260904144014 88 142 0.0 0.0 0.00 0.00 0.00 72 1020.6
20260904143509 87 128 0.9 1.7 0.00 0.00 0.00 72 1020.8
20260904143006 87 104 0.0 0.9 0.00 0.00 0.00 72 1020.8
20260904142502 90 157 0.0 0.0 0.00 0.00 0.00 70 1020.7
20260904142001 89 161 0.0 0.9 0.00 0.00 0.00 73 1020.6
20260904141456 89 109 0.9 0.9 0.00 0.00 0.00 70 1020.6
20260904140953 88 142 0.0 0.0 0.00 0.00 0.00 72 1020.6
20260904140452 87 119 0.0 0.9 0.00 0.00 0.00 76 1020.5
20260904135951 87 141 0.9 0.9 0.00 0.00 0.00 74 1020.3
20260904135446 87 147 0.9 0.9 0.00 0.00 0.00 76 1020.4
20260904134942 86 154 0.9 0.9 0.00 0.00 0.00 79 1020.3
20260904134442 85 149 1.7 1.7 0.00 0.00 0.00 79 1020.5
20260904133937 86 154 0.9 1.7 0.00 0.00 0.00 77 1020.4
20260904133431 88 164 0.9 1.7 0.00 0.00 0.00 76 1020.3
20260904132927 88 168 0.9 0.9 0.00 0.00 0.00 76 1020.3
20260904132422 87 170 0.0 0.9 0.00 0.00 0.00 78 1020.2
20260904131921 88 212 1.7 1.7 0.00 0.00 0.00 77 1020.4
20260904131417 88 175 0.9 0.9 0.00 0.00 0.00 80 1020.5
20260904130913 87 161 0.0 0.0 0.00 0.00 0.00 82 1020.3
20260904130412 85 135 0.0 0.9 0.00 0.00 0.00 82 1020.4
20260904125907 85 145 0.0 0.0 0.00 0.00 0.00 84 1020.5
20260904125404 84 133 0.0 1.7 0.00 0.00 0.00 87 1020.4
20260904124902 83 129 0.0 0.9 0.00 0.00 0.00 86 1020.5
20260904124359 83 128 0.0 0.0 0.00 0.00 0.00 89 1020.4
20260904123854 82 147 0.0 0.0 0.00 0.00 0.00 94 1020.5
20260904123349 79 134 0.0 0.0 0.00 0.00 0.00 95 1020.5
20260904122845 78 342 0.9 0.9 0.00 0.00 0.00 95 1020.5
20260904122344 78 51 0.0 0.0 0.00 0.00 0.00 96 1020.5
20260904121839 77 353 0.9 1.7 0.00 0.00 0.00 96 1020.4
20260904121335 77 335 0.9 1.7 0.00 0.00 0.00 96 1020.4
20260904120832 76 341 0.9 1.7 0.00 0.00 0.00 96 1020.2
20260904120327 76 343 0.9 1.7 0.00 0.00 0.00 97 1020.3
20260904115822 76 341 0.9 1.7 0.00 0.00 0.00 97 1020.3
20260904115317 75 340 1.7 1.7 0.00 0.00 0.00 97 1020.2
20260904114817 75 343 1.7 1.7 0.00 0.00 0.00 97 1020.3
20260904114312 75 338 0.9 1.7 0.00 0.00 0.00 98 1020.0
20260904113807 75 337 0.9 1.7 0.00 0.00 0.00 97 1020.0
20260904113306 75 330 0.9 1.7 0.00 0.00 0.00 98 1020.1
20260904112801 75 345 0.9 1.7 0.00 0.00 0.00 98 1020.0
20260904112256 75 340 0.9 1.7 0.00 0.00 0.00 98 1020.1
20260904111752 75 342 0.9 1.7 0.00 0.00 0.00 98 1020.1
20260904111248 75 336 1.7 1.7 0.00 0.00 0.00 98 1020.1
20260904110743 75 355 1.7 2.6 0.00 0.00 0.00 98 1019.8
20260904110242 75 334 1.7 1.7 0.00 0.00 0.00 98 1020.0
20260904105737 75 357 0.9 1.7 0.00 0.00 0.00 98 1019.7
20260904105232 75 356 1.7 1.7 0.00 0.00 0.00 98 1019.8
20260904104728 75 1 1.7 1.7 0.00 0.00 0.00 97 1019.7
20260904104223 75 337 1.7 1.7 0.00 0.00 0.00 97 1019.4
20260904103720 75 334 1.7 1.7 0.00 0.00 0.00 97 1019.5
20260904103214 75 339 1.7 2.6 0.00 0.00 0.00 97 1019.5
20260904102710 75 336 1.7 1.7 0.00 0.00 0.00 97 1019.4
20260904102205 75 336 1.7 1.7 0.00 0.00 0.00 97 1019.3
20260904101702 75 327 0.9 1.7 0.00 0.00 0.00 97 1019.4
20260904101157 75 0 0.9 1.7 0.00 0.00 0.00 97 1019.5
20260904100653 75 341 1.7 1.7 0.00 0.00 0.00 97 1019.2
20260904100148 75 333 1.7 1.7 0.00 0.00 0.00 96 1019.2